Regional Weather Roundup
Issued by NWS Wakefield, VA

Home | Current Version | Previous Version | Text Only | Print | Product List | Glossary On
Versions: 1 2 3 4 5 6 7 8 9 10 11 12 13 14 15 16 17 18 19 20 21 22 23 24 25 26 27 28 29 30 31 32 33 34 35 36 37 38 39 40 41 42 43 44 45 46 47 48 49 50
000
ASUS41 KAKQ 011210
RWRAKQ

REGIONAL WEATHER ROUNDUP
NATIONAL WEATHER SERVICE WAKEFIELD VA
800 AM EDT MON SEP 01 2014

Note: "fair" indicates few or no clouds below 12,000 feet with no
significant weather and/or obstructions to visibility. * = Denotes
station may not report precipitation (e.g., rain,snow,etc.),
thunder or fog.

VAZ042-051-052>054-056-011300-
NORTHERN VIRGINIA

CITY           SKY/WX    TMP DP  RH WIND       PRES   REMARKS
WASH NATIONAL  CLOUDY    78  73  84 S6        30.04S
DULLES         PTSUNNY   73  72  96 S5        30.04S
FORT BELVOIR   CLOUDY    74  73  97 SE2       30.04F
QUANTICO       CLOUDY    76  73  91 S13       30.04F
FREDERICKSBRG* CLOUDY    75  75 100 CALM      30.03F
STAFFORD*      CLOUDY    74  74 100 CALM      30.08S
WARRENTON      CLOUDY    74  74 100 CALM      30.04S
CULPEPER*      PTSUNNY  N/A N/A N/A CALM      30.05S
MANASSAS*      SUNNY     73  72  94 CALM      30.04S
LEESBURG*      PTSUNNY   72  72 100 CALM      30.05S
WINCHESTER     CLOUDY    72  70  94 CALM      30.05S
$$

VAZ048-049-060>072-079>083-011300-
CENTRAL AND SOUTH CENTRAL VIRGINIA...AND NORTH CENTRAL NORTH CAROLINA

CITY           SKY/WX    TMP DP  RH WIND       PRES   REMARKS
RICHMOND       CLOUDY    77  73  87 CALM      30.07S
CHESTERFIELD*  MOSUNNY  N/A N/A N/A SW5       30.09R
PETERSBURG*    MOSUNNY   75  73  91 SW5       30.09R
HANOVER        CLOUDY    77  73  87 SW5       30.09R
TAPPAHANNOCK*  CLOUDY    77  72  84 S5        30.07F
CHARLOTTSVILLE PTSUNNY   73  72  96 SW3       30.06R
ORANGE*        CLOUDY    73  72  94 CALM      30.07R
LOUISA*        CLOUDY    73  72  94 CALM      30.05S
FARMVILLE*     CLOUDY    75  73  94 SW3       30.07R
SOUTH HILL*      N/A     75  75 100 S5        30.15S
ROANOKE RAPIDS MOSUNNY   73  72  94 SW6       30.10S
RALEIGH        PTSUNNY   74  71  91 SW3       30.12R
$$

VAZ088>098-011300-
SOUTHEAST VIRGINIA

CITY           SKY/WX    TMP DP  RH WIND       PRES   REMARKS
NORFOLK        SUNNY     78  73  84 SW12      30.09R
VIRGINIA BEACH PTSUNNY   78  74  87 SW12      30.08R
NORFOLK NAVAL  PTSUNNY   79  74  84 SW9       30.10R
WEST POINT*    MOSUNNY   79  73  82 CALM      30.09R
NEWPORT NEWS   MOSUNNY   81  74  79 SW9       30.08R
LANGLEY AFB    SUNNY     79  76  91 W14       30.07S
FORT EUSTIS    SUNNY     77 N/A N/A SW6       30.07R
WILLIAMSBURG*  SUNNY     79  75  89 SW6       30.09S
FRANKLIN*      MOSUNNY   75  73  94 SW6       30.10R
WAKEFIELD      MOSUNNY   77  73  87 SW6       30.09R
$$

VAZ020-022-025-037-045-011300-
WESTERN AND SOUTHWEST VIRGINIA

CITY           SKY/WX    TMP DP  RH WIND       PRES   REMARKS
STAUNTON*      CLOUDY    75  67  77 S5        30.10S
HOT SPRINGS VA CLOUDY    64  64 100 W13G18    30.23S
LYNCHBURG      PTSUNNY   70  70 100 SW6       30.11S
DANVILLE       MOSUNNY   73  70  90 SW6       30.11R
MARTINSVILLE   MOSUNNY   71  71 100 CALM      30.15R
ROANOKE        PTSUNNY   75  67  76 SW5       30.13R
BLACKSBURG     MOSUNNY   70  70 100 CALM      30.19R
DUBLIN*        MOSUNNY   71  70  98 S6        30.19R
MARION*        MOSUNNY  N/A N/A N/A SW3       30.23R
HILLSVILLE*    CLOUDY    67  65  92 CALM      30.22R
RICHLANDS*     SUNNY     71  66  82 W9        30.20R
WISE*          PTSUNNY   68  68 100 SW7       30.22R
ABINGDON*      MOSUNNY   70  70 100 CALM      30.19S FOG
$$

MDZ021>025-VAZ099-100-011300-
SOUTHERN MARYLAND AND THE DELMARVA PENINSULA

CITY           SKY/WX    TMP DP  RH WIND       PRES   REMARKS
PATUXENT RIVER LGT RAIN  76  74  93 W6        30.05R
BAY BRIDGE APT   N/A     73  73 100 S3        30.05R
LEONARDTOWN    CLOUDY    73  72  94 W3        30.07F
DOVER          CLOUDY    74  74 100 S6        30.03R
GEORGETOWN     CLOUDY    77  74  90 S8        30.05R
EASTON         LGT RAIN  75  75 100 CALM      30.09R
CAMBRIDGE      CLOUDY    77  73  88 SW7       30.07R
SALISBURY      PTSUNNY   80  75  84 SW8       30.05S
OCEAN CITY     CLOUDY    79  75  87 W7        30.05S
WALLOPS ISLAND CLOUDY    79  74  84 SW7       30.07R
ACCOMACK*      NOT AVBL
$$

NCZ012>017-030>032-011300-
EASTERN NORTH CAROLINA

CITY           SKY/WX    TMP DP  RH WIND       PRES   REMARKS
ELIZABETH CITY MOSUNNY   78  75  90 SW8       30.11R
AHOSKIE*       PTSUNNY   75  73  95 CALM      30.11R
EDENTON*       PTSUNNY   77  75  95 S7        30.11S
CURRITUCK*     MOSUNNY   78  75  88 SW7       30.11R
KILL DEVIL HLS MOSUNNY   79  76  91 SW7       30.11R
MANTEO         MOSUNNY   78  76  91 SW7       30.12R
CAPE HATTERAS  SUNNY     80  77  90 W10       30.12R
GOLDSBORO      PTSUNNY   75  75 100 SW3       30.11R
WASHINGTON     MOSUNNY   76  74  93 SW5       30.12S
GREENVILLE     MOSUNNY   77  75  94 SW6       30.13S
NEW BERN       MOSUNNY   80  75  84 CALM      30.14R
WILMINGTON     MOSUNNY   78  76  93 CALM      30.13R
$$

VAZ048-011300-
ELSEWHERE

CITY           SKY/WX    TMP DP  RH WIND       PRES   REMARKS
HARRISBURG PA  PTSUNNY   74  71  91 CALM      30.02S
BALTIMORE      CLOUDY    73  72  96 CALM      30.03S
ANNAPOLIS      CLOUDY    75  71  87 S3        30.04R
ANDREWS AFB    CLOUDY    74  74  99 S7        30.03F
WILMINGTON DE  CLOUDY    74  73  97 CALM      30.04R
PHILADELPHIA   CLOUDY    75  72  90 SW6       30.03S
WILDWOOD NJ*   CLOUDY    75  72  88 SW5       30.05S
ATLANTIC CITY  CLOUDY    74  72  93 SW5       30.03S
HENDERSON NC   MOSUNNY   73  71  93 SW5       30.12R
GREENSBORO     PTSUNNY   73  71  93 SW7       30.12S
ROCKY MOUNT    CLOUDY    76  74  93 S7        30.11R
FAYETTEVILLE   SUNNY     76  74  93 SW6       30.12R
CHARLOTTE      MOSUNNY   74  70  87 CALM      30.14R
$$

VAZ100-011300-
MARINE

STATION/POSITION TIME  TEMP    WIND        PRES    WAVE   SWELL
                       AIR SEA DIR/SP/G            HT/PER HT/PER
                 (UTC) (F)     (DEG/KT/KT) (MB)    (FT/S) (FT/S)
44066 TX TWR #4  1200   73 73  180/  6/  8 1017.0R   4/ 6   3/ 6
CAPE MAY NJ      1200   76 80  210/  3/  3 1016.7S
LEWES DE         1200   76 76  260/  4/  5 1017.0S
15NM E FENWICK I 1200   76 74              1017.3R   3/ 5
OCEAN-CITY-INLET 1200   78 78  260/  8/ 10 1017.2S
WACHAPREAGUE VA  1200   78 81  250/  4/  7 1018.3R
THOMAS POINT MD  1200   76 78  190/  7/ 10 1018.0F
GOOSES REEF MD   1200   78     270/ 17/ 19 1018.1F
COVE POINT MD    1200   76     290/  9/ 12 1017.5F
SOLOMONS ISLAND  1200      80                N/A
BISHOPS HEAD MD  1200   78 79  250/ 11/ 13 1017.6R
PINEY POINT MD   1200          280/  7/  8   N/A
POTOMAC MD       1200   78     280/ 12/ 14 1017.4S
CAMBRIDGE MD     1200   76 79  240/  9/ 15 1017.9R
LEWISETTA VA     1200   77 80  260/  7/  8 1017.7R
RAPPAHANNOCK LGT 1200          220/ 15/ 16 1018.7S
STINGRAY PT      1200   78     260/ 12/ 14   N/A
YORK RVR RNG VA  1200   79     250/ 12/ 14 1018.0R
YORKTOWN VA      1200   77 80  240/  7/  9 1018.2R
JAMESTOWN VA     1200   75     270/  6/ 10   N/A
DOMINION TERM VA 1200   78     230/ 12/ 14 1018.7R
KIPTOPEKE VA     1200      82  240/ 14/ 16   N/A
CHES BAY BRIDGE  1200   78 79  210/ 12/ 14 1018.2R
CAPE HENRY VA    1200   78     220/  8/ 14 1017.5S
CHESAPEAKE LGHT  1100   77     230/ 17/ 19 1019.0R
WILLOUBY STN VA  1200   77     230/ 15/ 16 1017.3S
S CRANEY ISL VA  1200          210/  7/ 12 1018.6R
CAPE HENRY BUOY  1200      79                N/A     3/ 9
1ST LANDING BUOY 1200   78     230/ 14/ 17 1018.4S
CAPE CHARLES BUO 1200      78                N/A     3/ 9   2/ 9
OFFSHORE WE BUOY 1200      78                N/A     3/ 8   2/ 8
64NM E OF VA BCH 1200   78 76  220/ 10/ 10 1018.9R   3/10   2/10
DUCK PIER NC     1200   79 75  230/ 12/ 14 1019.0R
44056 DUCK FRF   1200                        N/A     2/ 9
OREGON INLET NC  1200   80 82  220/ 10/ 13 1019.7R
HATTERAS NC      1200   81 83  230/  8/ 11 1020.5S
DIAMOND SHLS NC  1200   82     240/ 14/ 16 1020.0R   3/ 9   2/ 9
CAPE LOOKOUT NC  1100   80     230/  7/  9 1020.0R
$$


USA.gov is the U.S. government's official web portal to all federal, state and local government web resources and services.